Location: Fauquembergues
(50.6005°N, 2.0987°E)
Time: 08:43:12
(UTC+00:00)

IRS-1C - Pass Details

Date: 14 July 2020
Orbit: 815 x 817 km, 98.8° (Epoch: 14 August)

Event Time Altitude Azimuth Distance (km) Brightness Sun altitude
Rises 02:50:22 0° 14° (NNE) 3,357 8.6 -8.4°
Reaches altitude 10° 02:52:44 10° 13° (NNE) 2,421 7.7 -8.1°
Maximum altitude 02:58:05 80° 289° (WNW) 836 4.2 -7.6°
Drops below altitude 10° 03:03:24 10° 202° (SSW) 2,403 6.0 -7.0°
Enters shadow 03:04:13 - 202° (SSW) 2,722 6.3 -6.9°
